Weather History for Mineral Point, WI

Change the Weather History Date:

Sunday, March 17, 2013

  Actual Average (KLNR) Record (KLNR)
Temperature  
Mean Temperature 26 °F -  
Max Temperature 32 °F 41 °F 82 °F (2012)
Min Temperature 19 °F 23 °F 16 °F (2014)
Degree Days  
Heating Degree Days 40    
Moisture  
Dew Point 17 °F    
Average Humidity 66    
Maximum Humidity 74    
Minimum Humidity 55    
Precipitation  
Precipitation 0.00 in - - ()
Sea Level Pressure  
Sea Level Pressure 30.10 in    
Wind  
Wind Speed 9 mph (ENE)    
Max Wind Speed 17 mph    
Max Gust Speed 22 mph    
Visibility 10 miles    
Events      
Averages and records for this station are not official NWS values.
T = Trace of Precipitation, MM = Missing Value Source: NWS Daily Summary

Daily Weather History Graph

Daily Weather History Graph

Search for Another Location

Airport:

Trip Planner

Search our weather history database for the weather conditions in past years. The results will help you decide how hot, cold, wet, or windy it might be!

Date:

Astronomy

Mar. 17, 2013 Rise Set
Actual Time 7:08 AM CDT 7:10 PM CDT
Civil Twilight 6:40 AM CDT 7:38 PM CDT
Nautical Twilight 6:07 AM CDT 8:11 PM CDT
Astronomical Twilight 5:34 AM CDT 8:44 PM CDT
Moon 10:13 AM CDT (3/17) 12:25 AM CDT (3/17)
Length of Visible Light 12h 57m
Length of Day
12h 01m
Waxing Crescent, 31% of the Moon is Illuminated
Mar 17
Waxing Crescent
Mar 19
First Quarter
Mar 27
Full
Apr 2
Last Quarter
Apr 10
New

Hourly Weather History & Observations

Time (CDT) Temp. Windchill Dew Point Humidity Pressure Visibility Wind Dir Wind Speed Gust Speed Precip Events Conditions
12:15 AM 26.6 °F 20.0 °F 19.4 °F 74% 30.13 in 10.0 mi WNW 5.8 mph - N/A   Clear
12:35 AM 26.6 °F 20.0 °F 19.4 °F 74% 30.14 in 10.0 mi WNW 5.8 mph - N/A   Clear
12:55 AM 26.6 °F 20.0 °F 19.4 °F 74% 30.14 in 10.0 mi NW 5.8 mph - N/A   Clear
1:15 AM 26.6 °F 18.2 °F 19.4 °F 74% 30.13 in 10.0 mi NW 8.1 mph - N/A   Clear
1:35 AM 26.6 °F 19.1 °F 19.4 °F 74% 30.13 in 10.0 mi NW 6.9 mph - N/A   Clear
1:55 AM 26.6 °F 19.1 °F 19.4 °F 74% 30.14 in 10.0 mi NNW 6.9 mph - N/A   Clear
2:15 AM 26.6 °F 18.2 °F 17.6 °F 69% 30.14 in 10.0 mi NNW 8.1 mph - N/A   Clear
2:35 AM 24.8 °F 16.1 °F 17.6 °F 74% 30.14 in 10.0 mi North 8.1 mph - N/A   Clear
2:55 AM 24.8 °F 16.1 °F 17.6 °F 74% 30.14 in 10.0 mi North 8.1 mph - N/A   Clear
3:15 AM 24.8 °F 15.3 °F 14.0 °F 64% 30.14 in 10.0 mi North 9.2 mph - N/A   Clear
3:35 AM 23.0 °F 12.4 °F 14.0 °F 68% 30.14 in 10.0 mi North 10.4 mph - N/A   Clear
3:55 AM 23.0 °F 11.7 °F 12.2 °F 63% 30.13 in 10.0 mi North 11.5 mph - N/A   Clear
4:15 AM 23.0 °F 11.7 °F 12.2 °F 63% 30.12 in 10.0 mi North 11.5 mph - N/A   Clear
4:35 AM 23.0 °F 11.7 °F 10.4 °F 59% 30.12 in 10.0 mi NNE 11.5 mph - N/A   Clear
4:55 AM 21.2 °F 9.5 °F 10.4 °F 63% 30.12 in 10.0 mi North 11.5 mph - N/A   Clear
5:15 AM 21.2 °F 9.5 °F 10.4 °F 63% 30.13 in 10.0 mi NNE 11.5 mph - N/A   Clear
5:35 AM 21.2 °F 12.6 °F 10.4 °F 63% 30.14 in 10.0 mi NNE 6.9 mph - N/A   Clear
5:55 AM 21.2 °F 10.1 °F 10.4 °F 63% 30.15 in 10.0 mi NE 10.4 mph - N/A   Clear
6:15 AM 21.2 °F 13.6 °F 8.6 °F 58% 30.15 in 10.0 mi NE 5.8 mph - N/A   Clear
6:35 AM 19.4 °F 10.4 °F 8.6 °F 63% 30.16 in 10.0 mi NE 6.9 mph - N/A   Clear
6:55 AM 19.4 °F 10.4 °F 8.6 °F 63% 30.17 in 10.0 mi ENE 6.9 mph - N/A   Clear
7:15 AM 19.4 °F 10.4 °F 8.6 °F 63% 30.17 in 10.0 mi ENE 6.9 mph - N/A   Clear
7:35 AM 19.4 °F 11.5 °F 8.6 °F 63% 30.17 in 10.0 mi NE 5.8 mph - N/A   Clear
7:55 AM 19.4 °F 8.6 °F 8.6 °F 63% 30.18 in 10.0 mi ENE 9.2 mph - N/A   Clear
8:15 AM 21.2 °F 10.9 °F 10.4 °F 63% 30.18 in 10.0 mi ENE 9.2 mph - N/A   Clear
8:35 AM 21.2 °F 9.5 °F 10.4 °F 63% 30.19 in 10.0 mi ENE 11.5 mph - N/A   Clear
8:55 AM 21.2 °F 9.5 °F 8.6 °F 58% 30.19 in 10.0 mi ENE 11.5 mph - N/A   Clear
9:15 AM 21.2 °F 8.9 °F 10.4 °F 63% 30.20 in 10.0 mi ENE 12.7 mph - N/A   Clear
9:55 AM 23.0 °F 13.1 °F 10.4 °F 59% 30.20 in 10.0 mi East 9.2 mph - N/A   Clear
10:15 AM 23.0 °F 13.1 °F 10.4 °F 59% 30.19 in 10.0 mi ENE 9.2 mph - N/A   Clear
10:35 AM 26.6 °F 15.7 °F 12.2 °F 55% 30.19 in 10.0 mi ENE 12.7 mph - N/A   Clear
10:55 AM 26.6 °F 16.8 °F 12.2 °F 55% 30.19 in 10.0 mi ENE 10.4 mph 17.3 mph N/A   Clear
11:15 AM 26.6 °F 16.8 °F 14.0 °F 59% 30.18 in 10.0 mi East 10.4 mph 17.3 mph N/A   Clear
11:35 AM 28.4 °F 18.5 °F 14.0 °F 55% 30.18 in 10.0 mi East 11.5 mph - N/A   Clear
11:55 AM 28.4 °F 18.5 °F 15.8 °F 59% 30.17 in 10.0 mi East 11.5 mph - N/A   Clear
12:15 PM 28.4 °F 19.7 °F 17.6 °F 64% 30.17 in 10.0 mi East 9.2 mph - N/A   Clear
12:35 PM 30.2 °F 21.3 °F 17.6 °F 60% 30.15 in 10.0 mi East 10.4 mph - N/A   Clear
12:55 PM 30.2 °F 21.9 °F 19.4 °F 64% 30.14 in 10.0 mi East 9.2 mph - N/A   Clear
1:15 PM 30.2 °F 21.3 °F 19.4 °F 64% 30.14 in 10.0 mi East 10.4 mph 17.3 mph N/A   Clear
1:35 PM 30.2 °F 21.9 °F 19.4 °F 64% 30.12 in 10.0 mi ESE 9.2 mph - N/A   Scattered Clouds
1:55 PM 32.0 °F 22.5 °F 19.4 °F 60% 30.11 in 10.0 mi East 12.7 mph 19.6 mph N/A   Mostly Cloudy
2:15 PM 30.2 °F 20.2 °F 19.4 °F 64% 30.10 in 10.0 mi ESE 12.7 mph 20.7 mph N/A   Mostly Cloudy
2:55 PM 32.0 °F 23.6 °F 19.4 °F 60% 30.09 in 10.0 mi ESE 10.4 mph - N/A   Overcast
3:15 PM 32.0 °F 22.5 °F 21.2 °F 64% 30.09 in 10.0 mi East 12.7 mph - N/A   Overcast
3:35 PM 32.0 °F 23.6 °F 21.2 °F 64% 30.08 in 10.0 mi East 10.4 mph 17.3 mph N/A   Overcast
3:55 PM 32.0 °F 24.2 °F 21.2 °F 64% 30.07 in 10.0 mi ESE 9.2 mph 19.6 mph N/A   Overcast
4:15 PM 32.0 °F 20.8 °F 21.2 °F 64% 30.07 in 10.0 mi SE 17.3 mph 21.9 mph N/A   Overcast
4:35 PM 32.0 °F 22.1 °F 21.2 °F 64% 30.05 in 10.0 mi ESE 13.8 mph 18.4 mph N/A   Overcast
4:55 PM 32.0 °F 22.5 °F 21.2 °F 64% 30.05 in 10.0 mi ESE 12.7 mph 20.7 mph N/A   Overcast
5:15 PM 32.0 °F 22.5 °F 21.2 °F 64% 30.04 in 10.0 mi ESE 12.7 mph 17.3 mph N/A   Mostly Cloudy
5:35 PM 32.0 °F 22.1 °F 21.2 °F 64% 30.03 in 10.0 mi East 13.8 mph - N/A   Scattered Clouds
5:55 PM 32.0 °F 22.5 °F 21.2 °F 64% 30.03 in 10.0 mi East 12.7 mph 16.1 mph N/A   Mostly Cloudy
6:15 PM 32.0 °F 22.5 °F 21.2 °F 64% 30.02 in 10.0 mi East 12.7 mph 18.4 mph N/A   Scattered Clouds
6:35 PM 30.2 °F 21.3 °F 21.2 °F 69% 30.02 in 10.0 mi East 10.4 mph - N/A   Scattered Clouds
6:55 PM 30.2 °F 20.8 °F 21.2 °F 69% 30.01 in 10.0 mi ESE 11.5 mph 18.4 mph N/A   Clear
7:15 PM 30.2 °F 21.3 °F 19.4 °F 64% 30.02 in 10.0 mi ESE 10.4 mph 18.4 mph N/A   Clear
7:35 PM 30.2 °F 21.9 °F 21.2 °F 69% 30.02 in 10.0 mi East 9.2 mph - N/A   Clear
7:55 PM 30.2 °F 20.8 °F 19.4 °F 64% 30.01 in 10.0 mi ESE 11.5 mph 16.1 mph N/A   Clear
8:15 PM 28.4 °F 18.5 °F 19.4 °F 69% 30.01 in 10.0 mi East 11.5 mph - N/A   Clear
8:55 PM 28.4 °F 18.0 °F 19.4 °F 69% 30.00 in 10.0 mi East 12.7 mph - N/A   Clear
9:15 PM 28.4 °F 18.0 °F 19.4 °F 69% 29.99 in 10.0 mi East 12.7 mph - N/A   Clear
9:35 PM 28.4 °F 18.0 °F 19.4 °F 69% 29.99 in 10.0 mi East 12.7 mph - N/A   Clear
9:55 PM 28.4 °F 18.0 °F 21.2 °F 74% 29.98 in 10.0 mi East 12.7 mph - N/A   Clear
10:15 PM 28.4 °F 18.5 °F 21.2 °F 74% 29.97 in 10.0 mi East 11.5 mph - N/A   Clear
10:35 PM 28.4 °F 18.0 °F 21.2 °F 74% 29.97 in 10.0 mi East 12.7 mph - N/A   Clear
10:55 PM 28.4 °F 18.5 °F 21.2 °F 74% 29.95 in 10.0 mi East 11.5 mph - N/A   Clear
11:15 PM 28.4 °F 19.7 °F 21.2 °F 74% 29.95 in 10.0 mi ESE 9.2 mph 18.4 mph N/A   Clear
11:35 PM 28.4 °F 18.5 °F 21.2 °F 74% 29.94 in 10.0 mi East 11.5 mph - N/A   Clear
11:55 PM 28.4 °F 18.5 °F 21.2 °F 74% 29.93 in 10.0 mi East 11.5 mph 16.1 mph N/A   Clear